Year,Month,Day,Hour,Minute,Value (Times are PST for temperature in C)
2009,07,01,00,00,10.60
2009,07,01,00,01,10.60
2009,07,01,00,02,10.50
2009,07,01,00,03,10.40
2009,07,01,00,04,10.40
2009,07,01,00,05,10.40
2009,07,01,00,06,10.30
2009,07,01,00,07,10.30
2009,07,01,00,08,10.30
2009,07,01,00,09,10.30
2009,07,01,00,10,10.20
2009,07,01,00,11,10.20
2009,07,01,00,12,10.20
2009,07,01,00,13,10.20
2009,07,01,00,14,10.10
2009,07,01,00,15,10.10
2009,07,01,00,16,10.10
2009,07,01,00,17,10.10
2009,07,01,00,18,10.10
2009,07,01,00,19,10.10
2009,07,01,00,20,10.00
2009,07,01,00,21,9.90
2009,07,01,00,22,9.90
2009,07,01,00,23,9.90
2009,07,01,00,24,9.90
2009,07,01,00,25,9.90
2009,07,01,00,26,9.90
2009,07,01,00,27,9.90
2009,07,01,00,28,9.90
2009,07,01,00,29,9.90
2009,07,01,00,30,9.90
2009,07,01,00,31,9.90
2009,07,01,00,32,9.90
2009,07,01,00,33,9.80
2009,07,01,00,34,9.80
2009,07,01,00,35,9.70
2009,07,01,00,36,9.70
2009,07,01,00,37,9.70
2009,07,01,00,38,9.70
2009,07,01,00,39,9.70
2009,07,01,00,40,9.70
2009,07,01,00,41,9.70
2009,07,01,00,42,9.60
2009,07,01,00,43,9.60
2009,07,01,00,44,9.60
2009,07,01,00,45,9.60
2009,07,01,00,46,9.60
2009,07,01,00,47,9.60
2009,07,01,00,48,9.60
2009,07,01,00,49,9.60
2009,07,01,00,50,9.60
2009,07,01,00,51,9.60
2009,07,01,00,52,9.50
2009,07,01,00,53,9.50
2009,07,01,00,54,9.40
2009,07,01,00,55,9.40
2009,07,01,00,56,9.30
2009,07,01,00,57,9.30
2009,07,01,00,58,9.30
2009,07,01,00,59,9.30
2009,07,01,01,00,9.20
2009,07,01,01,01,9.20
2009,07,01,01,02,9.20
2009,07,01,01,03,9.20
2009,07,01,01,04,9.20
2009,07,01,01,05,9.20
2009,07,01,01,06,9.20
2009,07,01,01,07,9.20
2009,07,01,01,08,9.20
2009,07,01,01,09,9.20
2009,07,01,01,10,9.20
2009,07,01,01,11,9.20
2009,07,01,01,12,9.20
2009,07,01,01,13,9.20
2009,07,01,01,14,9.20
2009,07,01,01,15,9.20
2009,07,01,01,16,9.20
2009,07,01,01,17,9.20
2009,07,01,01,18,9.20
2009,07,01,01,19,9.20
2009,07,01,01,20,9.20
2009,07,01,01,21,9.20
2009,07,01,01,22,9.10
2009,07,01,01,23,9.10
2009,07,01,01,24,9.10
2009,07,01,01,25,9.00
2009,07,01,01,26,9.00
2009,07,01,01,27,9.00
2009,07,01,01,28,8.90
2009,07,01,01,29,8.90
2009,07,01,01,30,8.90
2009,07,01,01,31,8.90
2009,07,01,01,32,8.80
2009,07,01,01,33,8.80
2009,07,01,01,34,8.80
2009,07,01,01,35,8.80
2009,07,01,01,36,8.80
2009,07,01,01,37,8.70
2009,07,01,01,38,8.70
2009,07,01,01,39,8.70
2009,07,01,01,40,8.70
2009,07,01,01,41,8.70
2009,07,01,01,42,8.70
2009,07,01,01,43,8.70
2009,07,01,01,44,8.70
2009,07,01,01,45,8.70
2009,07,01,01,46,8.70
2009,07,01,01,47,8.70
2009,07,01,01,48,8.70
2009,07,01,01,49,8.70
2009,07,01,01,50,8.60
2009,07,01,01,51,8.60
2009,07,01,01,52,8.60
2009,07,01,01,53,8.50
2009,07,01,01,54,8.50
2009,07,01,01,55,8.40
2009,07,01,01,56,8.40
2009,07,01,01,57,8.40
2009,07,01,01,58,8.40
2009,07,01,01,59,8.40
2009,07,01,02,00,8.40
2009,07,01,02,01,8.40
2009,07,01,02,02,8.40
2009,07,01,02,03,8.50
2009,07,01,02,04,8.50
2009,07,01,02,05,8.60
2009,07,01,02,06,8.60
2009,07,01,02,07,8.70
2009,07,01,02,08,8.70
2009,07,01,02,09,8.70
2009,07,01,02,10,8.70
2009,07,01,02,11,8.70
2009,07,01,02,12,8.70
2009,07,01,02,13,8.70
2009,07,01,02,14,8.70
2009,07,01,02,15,8.60
2009,07,01,02,16,8.60
2009,07,01,02,17,8.60
2009,07,01,02,18,8.50
2009,07,01,02,19,8.50
2009,07,01,02,20,8.40
2009,07,01,02,21,8.40
2009,07,01,02,22,8.40
2009,07,01,02,23,8.40
2009,07,01,02,24,8.40
2009,07,01,02,25,8.40
2009,07,01,02,26,8.40
2009,07,01,02,27,8.40
2009,07,01,02,28,8.40
2009,07,01,02,29,8.40
2009,07,01,02,30,8.40
2009,07,01,02,31,8.40
2009,07,01,02,32,8.40
2009,07,01,02,33,8.40
2009,07,01,02,34,8.40
2009,07,01,02,35,8.40
2009,07,01,02,36,8.40
2009,07,01,02,37,8.30
2009,07,01,02,38,8.30
2009,07,01,02,39,8.30
2009,07,01,02,40,8.20
2009,07,01,02,41,8.20
2009,07,01,02,42,8.20
2009,07,01,02,43,8.20
2009,07,01,02,44,8.20
2009,07,01,02,45,8.20
2009,07,01,02,46,8.10
2009,07,01,02,47,8.10
2009,07,01,02,48,8.10
2009,07,01,02,49,8.10
2009,07,01,02,50,8.10
2009,07,01,02,51,8.10
2009,07,01,02,52,8.10
2009,07,01,02,53,8.10
2009,07,01,02,54,8.10
2009,07,01,02,55,8.20
2009,07,01,02,56,8.20
2009,07,01,02,57,8.20
2009,07,01,02,58,8.20
2009,07,01,02,59,8.20
2009,07,01,03,00,8.10
2009,07,01,03,01,8.10
2009,07,01,03,02,8.10
2009,07,01,03,03,8.10
2009,07,01,03,04,8.00
2009,07,01,03,05,8.00
2009,07,01,03,06,8.00
2009,07,01,03,07,8.00
2009,07,01,03,08,8.00
2009,07,01,03,09,8.00
2009,07,01,03,10,8.00
2009,07,01,03,11,8.00
2009,07,01,03,12,8.00
2009,07,01,03,13,8.00
2009,07,01,03,14,8.00
2009,07,01,03,15,8.00
2009,07,01,03,16,7.90
2009,07,01,03,17,7.90
2009,07,01,03,18,7.90
2009,07,01,03,19,7.90
2009,07,01,03,20,7.90
2009,07,01,03,21,7.80
2009,07,01,03,22,7.80
2009,07,01,03,23,7.80
2009,07,01,03,24,7.80
2009,07,01,03,25,7.80
2009,07,01,03,26,7.80
2009,07,01,03,27,7.80
2009,07,01,03,28,7.80
2009,07,01,03,29,7.80
2009,07,01,03,30,7.70
2009,07,01,03,31,7.70
2009,07,01,03,32,7.70
2009,07,01,03,33,7.60
2009,07,01,03,34,7.60
2009,07,01,03,35,7.60
2009,07,01,03,36,7.50
2009,07,01,03,37,7.50
2009,07,01,03,38,7.50
2009,07,01,03,39,7.50
2009,07,01,03,40,7.50
2009,07,01,03,41,7.50
2009,07,01,03,42,7.50
2009,07,01,03,43,7.50
2009,07,01,03,44,7.40
2009,07,01,03,45,7.40
2009,07,01,03,46,7.40
2009,07,01,03,47,7.30
2009,07,01,03,48,7.30
2009,07,01,03,49,7.30
2009,07,01,03,50,7.30
2009,07,01,03,51,7.30
2009,07,01,03,52,7.30
2009,07,01,03,53,7.30
2009,07,01,03,54,7.30
2009,07,01,03,55,7.30
2009,07,01,03,56,7.30
2009,07,01,03,57,7.30
2009,07,01,03,58,7.30
2009,07,01,03,59,7.30
2009,07,01,04,00,7.30
2009,07,01,04,01,7.30
2009,07,01,04,02,7.40
2009,07,01,04,03,7.40
2009,07,01,04,04,7.40
2009,07,01,04,05,7.40
2009,07,01,04,06,7.40
2009,07,01,04,07,7.40
2009,07,01,04,08,7.40
2009,07,01,04,09,7.40
2009,07,01,04,10,7.40
2009,07,01,04,11,7.30
2009,07,01,04,12,7.30
2009,07,01,04,13,7.30
2009,07,01,04,14,7.30
2009,07,01,04,15,7.30
2009,07,01,04,16,7.20
2009,07,01,04,17,7.20
2009,07,01,04,18,7.20
2009,07,01,04,19,7.20
2009,07,01,04,20,7.20
2009,07,01,04,21,7.20
2009,07,01,04,22,7.30
2009,07,01,04,23,7.30
2009,07,01,04,24,7.30
2009,07,01,04,25,7.30
2009,07,01,04,26,7.30
2009,07,01,04,27,7.30
2009,07,01,04,28,7.30
2009,07,01,04,29,7.20
2009,07,01,04,30,7.20
2009,07,01,04,31,7.20
2009,07,01,04,32,7.20
2009,07,01,04,33,7.20
2009,07,01,04,34,7.20
2009,07,01,04,35,7.20
2009,07,01,04,36,7.20
2009,07,01,04,37,7.20
2009,07,01,04,38,7.20
2009,07,01,04,39,7.20
2009,07,01,04,40,7.20
2009,07,01,04,41,7.20
2009,07,01,04,42,7.20
2009,07,01,04,43,7.20
2009,07,01,04,44,7.20
2009,07,01,04,45,7.20
2009,07,01,04,46,7.20
2009,07,01,04,47,7.20
2009,07,01,04,48,7.20
2009,07,01,04,49,7.10
2009,07,01,04,50,7.10
2009,07,01,04,51,7.10
2009,07,01,04,52,7.10
2009,07,01,04,53,7.10
2009,07,01,04,54,7.00
2009,07,01,04,55,7.10
2009,07,01,04,56,7.10
2009,07,01,04,57,7.10
2009,07,01,04,58,7.10
2009,07,01,04,59,7.20
2009,07,01,05,00,7.20
2009,07,01,05,01,7.20
2009,07,01,05,02,7.20
2009,07,01,05,03,7.20
2009,07,01,05,04,7.20
2009,07,01,05,05,7.10
2009,07,01,05,06,7.10
2009,07,01,05,07,7.00
2009,07,01,05,08,7.00
2009,07,01,05,09,6.90
2009,07,01,05,10,6.90
2009,07,01,05,11,6.90
2009,07,01,05,12,6.80
2009,07,01,05,13,6.80
2009,07,01,05,14,6.80
2009,07,01,05,15,6.80
2009,07,01,05,16,6.80
2009,07,01,05,17,6.80
2009,07,01,05,18,6.80
2009,07,01,05,19,6.80
2009,07,01,05,20,6.80
2009,07,01,05,21,6.80
2009,07,01,05,22,6.80
2009,07,01,05,23,6.80
2009,07,01,05,24,6.80
2009,07,01,05,25,6.80
2009,07,01,05,26,6.80
2009,07,01,05,27,6.80
2009,07,01,05,28,6.80
2009,07,01,05,29,6.80
2009,07,01,05,30,6.80
2009,07,01,05,31,6.80
2009,07,01,05,32,6.80
2009,07,01,05,33,6.80
2009,07,01,05,34,6.80
2009,07,01,05,35,6.80
2009,07,01,05,36,6.80
2009,07,01,05,37,6.80
2009,07,01,05,38,6.80
2009,07,01,05,39,6.80
2009,07,01,05,40,6.80
2009,07,01,05,41,6.80
2009,07,01,05,42,6.80
2009,07,01,05,43,6.80
2009,07,01,05,44,6.80
2009,07,01,05,45,6.80
2009,07,01,05,46,6.80
2009,07,01,05,47,6.80
2009,07,01,05,48,6.80
2009,07,01,05,49,6.80
2009,07,01,05,50,6.70
2009,07,01,05,51,6.70
2009,07,01,05,52,6.70
2009,07,01,05,53,6.80
2009,07,01,05,54,6.80
2009,07,01,05,55,6.80
2009,07,01,05,56,6.80
2009,07,01,05,57,6.80
2009,07,01,05,58,6.80
2009,07,01,05,59,6.80
2009,07,01,06,00,6.80
2009,07,01,06,01,6.80
2009,07,01,06,02,6.80
2009,07,01,06,03,6.80
2009,07,01,06,04,6.80
2009,07,01,06,05,6.80
2009,07,01,06,06,6.80
2009,07,01,06,07,6.80
2009,07,01,06,08,6.80
2009,07,01,06,09,6.80
2009,07,01,06,10,6.90
2009,07,01,06,11,6.90
2009,07,01,06,12,6.90
2009,07,01,06,13,6.90
2009,07,01,06,14,6.90
2009,07,01,06,15,6.90
2009,07,01,06,16,7.00
2009,07,01,06,17,7.00
2009,07,01,06,18,7.10
2009,07,01,06,19,7.10
2009,07,01,06,20,7.10
2009,07,01,06,21,7.20
2009,07,01,06,22,7.20
2009,07,01,06,23,7.30
2009,07,01,06,24,7.30
2009,07,01,06,25,7.30
2009,07,01,06,26,7.40
2009,07,01,06,27,7.50
2009,07,01,06,28,7.60
2009,07,01,06,29,7.70
2009,07,01,06,30,7.80
2009,07,01,06,31,7.80
2009,07,01,06,32,7.80
2009,07,01,06,33,7.90
2009,07,01,06,34,8.00
2009,07,01,06,35,8.00
2009,07,01,06,36,8.00
2009,07,01,06,37,8.10
2009,07,01,06,38,8.10
2009,07,01,06,39,8.10
2009,07,01,06,40,8.20
2009,07,01,06,41,8.20
2009,07,01,06,42,8.20
2009,07,01,06,43,8.20
2009,07,01,06,44,8.20
2009,07,01,06,45,8.20
2009,07,01,06,46,8.30
2009,07,01,06,47,8.30
2009,07,01,06,48,8.40
2009,07,01,06,49,8.50
2009,07,01,06,50,8.60
2009,07,01,06,51,8.70
2009,07,01,06,52,8.80
2009,07,01,06,53,8.80
2009,07,01,06,54,8.90
2009,07,01,06,55,9.00
2009,07,01,06,56,9.10
2009,07,01,06,57,9.20
2009,07,01,06,58,9.30
2009,07,01,06,59,9.40
2009,07,01,07,00,9.60
2009,07,01,07,01,9.70
2009,07,01,07,02,9.70
2009,07,01,07,03,9.80
2009,07,01,07,04,9.80
2009,07,01,07,05,9.90
2009,07,01,07,06,10.00
2009,07,01,07,07,10.10
2009,07,01,07,08,10.20
2009,07,01,07,09,10.30
2009,07,01,07,10,10.40
2009,07,01,07,11,10.60
2009,07,01,07,12,10.70
2009,07,01,07,13,10.80
2009,07,01,07,14,10.90
2009,07,01,07,15,11.10
2009,07,01,07,16,11.10
2009,07,01,07,17,11.20
2009,07,01,07,18,11.20
2009,07,01,07,19,11.20
2009,07,01,07,20,11.30
2009,07,01,07,21,11.30
2009,07,01,07,22,11.40
2009,07,01,07,23,11.40
2009,07,01,07,24,11.40
2009,07,01,07,25,11.50
2009,07,01,07,26,11.60
2009,07,01,07,27,11.60
2009,07,01,07,28,11.60
2009,07,01,07,29,11.70
2009,07,01,07,30,11.80
2009,07,01,07,31,11.80
2009,07,01,07,32,11.90
2009,07,01,07,33,12.10
2009,07,01,07,34,12.20
2009,07,01,07,35,12.30
2009,07,01,07,36,12.50
2009,07,01,07,37,12.60
2009,07,01,07,38,12.70
2009,07,01,07,39,12.80
2009,07,01,07,40,12.80
2009,07,01,07,41,12.90
2009,07,01,07,42,13.00
2009,07,01,07,43,13.00
2009,07,01,07,44,13.10
2009,07,01,07,45,13.20
2009,07,01,07,46,13.30
2009,07,01,07,47,13.50
2009,07,01,07,48,13.70
2009,07,01,07,49,13.80
2009,07,01,07,50,13.90
2009,07,01,07,51,14.00
2009,07,01,07,52,14.00
2009,07,01,07,53,14.00
2009,07,01,07,54,14.10
2009,07,01,07,55,14.20
2009,07,01,07,56,14.20
2009,07,01,07,57,14.20
2009,07,01,07,58,14.30
2009,07,01,07,59,14.40
2009,07,01,08,00,14.60
2009,07,01,08,01,14.70
2009,07,01,08,02,14.90
2009,07,01,08,03,15.10
2009,07,01,08,04,15.20
2009,07,01,08,05,15.40
2009,07,01,08,06,15.50
2009,07,01,08,07,15.70
2009,07,01,08,08,15.80
2009,07,01,08,09,15.90
2009,07,01,08,10,16.00
2009,07,01,08,11,16.10
2009,07,01,08,12,16.20
2009,07,01,08,13,16.30
2009,07,01,08,14,16.30
2009,07,01,08,15,16.40
2009,07,01,08,16,16.50
2009,07,01,08,17,16.60
2009,07,01,08,18,16.70
2009,07,01,08,19,16.70
2009,07,01,08,20,16.80
2009,07,01,08,21,16.90
2009,07,01,08,22,16.90
2009,07,01,08,23,16.90
2009,07,01,08,24,17.00
2009,07,01,08,25,17.00
2009,07,01,08,26,17.10
2009,07,01,08,27,17.10
2009,07,01,08,28,17.10
2009,07,01,08,29,17.20
2009,07,01,08,30,17.20
2009,07,01,08,31,17.30
2009,07,01,08,32,17.30
2009,07,01,08,33,17.30
2009,07,01,08,34,17.30
2009,07,01,08,35,17.30
2009,07,01,08,36,17.30
2009,07,01,08,37,17.30
2009,07,01,08,38,17.30
2009,07,01,08,39,17.30
2009,07,01,08,40,17.30
2009,07,01,08,41,17.30
2009,07,01,08,42,17.20
2009,07,01,08,43,17.20
2009,07,01,08,44,17.20
2009,07,01,08,45,17.30
2009,07,01,08,46,17.30
2009,07,01,08,47,17.30
2009,07,01,08,48,17.50
2009,07,01,08,49,17.50
2009,07,01,08,50,17.60
2009,07,01,08,51,17.70
2009,07,01,08,52,17.70
2009,07,01,08,53,17.70
2009,07,01,08,54,17.70
2009,07,01,08,55,17.70
2009,07,01,08,56,17.70
2009,07,01,08,57,17.70
2009,07,01,08,58,17.80
2009,07,01,08,59,17.80
2009,07,01,09,00,17.80
2009,07,01,09,01,17.90
2009,07,01,09,02,17.90
2009,07,01,09,03,17.90
2009,07,01,09,04,18.00
2009,07,01,09,05,18.10
2009,07,01,09,06,18.20
2009,07,01,09,07,18.20
2009,07,01,09,08,18.20
2009,07,01,09,09,18.20
2009,07,01,09,10,18.20
2009,07,01,09,11,18.20
2009,07,01,09,12,18.20
2009,07,01,09,13,18.30
2009,07,01,09,14,18.30
2009,07,01,09,15,18.40
2009,07,01,09,16,18.40
2009,07,01,09,17,18.40
2009,07,01,09,18,18.40
2009,07,01,09,19,18.40
2009,07,01,09,20,18.40
2009,07,01,09,21,18.40
2009,07,01,09,22,18.50
2009,07,01,09,23,18.50
2009,07,01,09,24,18.60
2009,07,01,09,25,18.60
2009,07,01,09,26,18.60
2009,07,01,09,27,18.70
2009,07,01,09,28,18.70
2009,07,01,09,29,18.70
2009,07,01,09,30,18.70
2009,07,01,09,31,18.70
2009,07,01,09,32,18.60
2009,07,01,09,33,18.50
2009,07,01,09,34,18.50
2009,07,01,09,35,18.40
2009,07,01,09,36,18.40
2009,07,01,09,37,18.40
2009,07,01,09,38,18.40
2009,07,01,09,39,18.20
2009,07,01,09,40,18.20
2009,07,01,09,41,18.20
2009,07,01,09,42,18.10
2009,07,01,09,43,18.10
2009,07,01,09,44,18.20
2009,07,01,09,45,18.20
2009,07,01,09,46,18.30
2009,07,01,09,47,18.40
2009,07,01,09,48,18.50
2009,07,01,09,49,18.60
2009,07,01,09,50,18.70
2009,07,01,09,51,18.80
2009,07,01,09,52,18.90
2009,07,01,09,53,18.90
2009,07,01,09,54,18.90
2009,07,01,09,55,18.90
2009,07,01,09,56,18.90
2009,07,01,09,57,19.00
2009,07,01,09,58,18.90
2009,07,01,09,59,18.70
2009,07,01,10,00,18.70
2009,07,01,10,01,18.70
2009,07,01,10,02,18.70
2009,07,01,10,03,18.70
2009,07,01,10,04,18.90
2009,07,01,10,05,19.00
2009,07,01,10,06,19.10
2009,07,01,10,07,19.10
2009,07,01,10,08,19.20
2009,07,01,10,09,19.20
2009,07,01,10,10,19.30
2009,07,01,10,11,19.30
2009,07,01,10,12,19.10
2009,07,01,10,13,19.10
2009,07,01,10,14,19.10
2009,07,01,10,15,19.10
2009,07,01,10,16,19.20
2009,07,01,10,17,19.30
2009,07,01,10,18,19.30
2009,07,01,10,19,19.40
2009,07,01,10,20,19.50
2009,07,01,10,21,19.50
2009,07,01,10,22,19.60
2009,07,01,10,23,19.70
2009,07,01,10,24,19.80
2009,07,01,10,25,19.80
2009,07,01,10,26,19.80
2009,07,01,10,27,19.70
2009,07,01,10,28,19.70
2009,07,01,10,29,19.60
2009,07,01,10,30,19.60
2009,07,01,10,31,19.50
2009,07,01,10,32,19.40
2009,07,01,10,33,19.20
2009,07,01,10,34,19.10
2009,07,01,10,35,19.10
2009,07,01,10,36,19.10
2009,07,01,10,37,19.00
2009,07,01,10,38,18.90
2009,07,01,10,39,18.90
2009,07,01,10,40,18.90
2009,07,01,10,41,18.90
2009,07,01,10,42,18.90
2009,07,01,10,43,18.90
2009,07,01,10,44,19.00
2009,07,01,10,45,19.20
2009,07,01,10,46,19.40
2009,07,01,10,47,19.40
2009,07,01,10,48,19.50
2009,07,01,10,49,19.60
2009,07,01,10,50,19.60
2009,07,01,10,51,19.70
2009,07,01,10,52,19.70
2009,07,01,10,53,19.80
2009,07,01,10,54,19.90
2009,07,01,10,55,20.10
2009,07,01,10,56,20.20
2009,07,01,10,57,20.40
2009,07,01,10,58,20.40
2009,07,01,10,59,20.30
2009,07,01,11,00,20.20
2009,07,01,11,01,20.30
2009,07,01,11,02,20.30
2009,07,01,11,03,20.30
2009,07,01,11,04,20.40
2009,07,01,11,05,20.40
2009,07,01,11,06,20.50
2009,07,01,11,07,20.50
2009,07,01,11,08,20.50
2009,07,01,11,09,20.50
2009,07,01,11,10,20.50
2009,07,01,11,11,20.50
2009,07,01,11,12,20.40
2009,07,01,11,13,20.30
2009,07,01,11,14,20.30
2009,07,01,11,15,20.20
2009,07,01,11,16,20.20
2009,07,01,11,17,20.20
2009,07,01,11,18,20.20
2009,07,01,11,19,20.20
2009,07,01,11,20,20.20
2009,07,01,11,21,20.30
2009,07,01,11,22,20.30
2009,07,01,11,23,20.30
2009,07,01,11,24,20.40
2009,07,01,11,25,20.40
2009,07,01,11,26,20.40
2009,07,01,11,27,20.30
2009,07,01,11,28,20.40
2009,07,01,11,29,20.40
2009,07,01,11,30,20.40
2009,07,01,11,31,20.30
2009,07,01,11,32,20.50
2009,07,01,11,33,20.60
2009,07,01,11,34,20.60
2009,07,01,11,35,20.60
2009,07,01,11,36,20.60
2009,07,01,11,37,20.60
2009,07,01,11,38,20.60
2009,07,01,11,39,20.60
2009,07,01,11,40,20.60
2009,07,01,11,41,20.50
2009,07,01,11,42,20.60
2009,07,01,11,43,20.70
2009,07,01,11,44,20.80
2009,07,01,11,45,20.80
2009,07,01,11,46,20.90
2009,07,01,11,47,21.00
2009,07,01,11,48,21.10
2009,07,01,11,49,21.00
2009,07,01,11,50,21.00
2009,07,01,11,51,21.00
2009,07,01,11,52,20.90
2009,07,01,11,53,20.80
2009,07,01,11,54,20.80
2009,07,01,11,55,20.70
2009,07,01,11,56,20.70
2009,07,01,11,57,20.80
2009,07,01,11,58,20.90
2009,07,01,11,59,20.90
2009,07,01,12,00,20.90
2009,07,01,12,01,20.80
2009,07,01,12,02,20.80
2009,07,01,12,03,20.80
2009,07,01,12,04,20.60
2009,07,01,12,05,20.50
2009,07,01,12,06,20.40
2009,07,01,12,07,20.40
2009,07,01,12,08,20.40
2009,07,01,12,09,20.30
2009,07,01,12,10,20.20
2009,07,01,12,11,20.20
2009,07,01,12,12,20.30
2009,07,01,12,13,20.40
2009,07,01,12,14,20.60
2009,07,01,12,15,20.60
2009,07,01,12,16,20.60
2009,07,01,12,17,20.70
2009,07,01,12,18,20.80
2009,07,01,12,19,20.90
2009,07,01,12,20,20.90
2009,07,01,12,21,20.90
2009,07,01,12,22,21.00
2009,07,01,12,23,20.90
2009,07,01,12,24,20.90
2009,07,01,12,25,20.90
2009,07,01,12,26,20.80
2009,07,01,12,27,20.80
2009,07,01,12,28,20.80
2009,07,01,12,29,20.70
2009,07,01,12,30,20.80
2009,07,01,12,31,20.90
2009,07,01,12,32,20.90
2009,07,01,12,33,21.00
2009,07,01,12,34,20.90
2009,07,01,12,35,20.80
2009,07,01,12,36,20.70
2009,07,01,12,37,20.80
2009,07,01,12,38,20.90
2009,07,01,12,39,21.00
2009,07,01,12,40,20.90
2009,07,01,12,41,20.90
2009,07,01,12,42,20.90
2009,07,01,12,43,21.00
2009,07,01,12,44,21.20
2009,07,01,12,45,21.30
2009,07,01,12,46,21.50
2009,07,01,12,47,21.60
2009,07,01,12,48,21.70
2009,07,01,12,49,21.90
2009,07,01,12,50,22.00
2009,07,01,12,51,22.00
2009,07,01,12,52,21.90
2009,07,01,12,53,21.70
2009,07,01,12,54,21.60
2009,07,01,12,55,21.60
2009,07,01,12,56,21.70
2009,07,01,12,57,21.70
2009,07,01,12,58,21.60
2009,07,01,12,59,21.60
2009,07,01,13,00,21.50
2009,07,01,13,01,21.50
2009,07,01,13,02,21.40
2009,07,01,13,03,21.50
2009,07,01,13,04,21.60
2009,07,01,13,05,21.60
2009,07,01,13,06,21.70
2009,07,01,13,07,21.60
2009,07,01,13,08,21.50
2009,07,01,13,09,21.30
2009,07,01,13,10,21.30
2009,07,01,13,11,21.40
2009,07,01,13,12,21.60
2009,07,01,13,13,21.70
2009,07,01,13,14,21.80
2009,07,01,13,15,21.90
2009,07,01,13,16,21.90
2009,07,01,13,17,21.90
2009,07,01,13,18,21.80
2009,07,01,13,19,21.80
2009,07,01,13,20,21.80
2009,07,01,13,21,21.80
2009,07,01,13,22,21.70
2009,07,01,13,23,21.70
2009,07,01,13,24,21.70
2009,07,01,13,25,21.60
2009,07,01,13,26,21.60
2009,07,01,13,27,21.60
2009,07,01,13,28,21.60
2009,07,01,13,29,21.60
2009,07,01,13,30,21.70
2009,07,01,13,31,21.70
2009,07,01,13,32,21.60
2009,07,01,13,33,21.60
2009,07,01,13,34,21.70
2009,07,01,13,35,21.80
2009,07,01,13,36,21.90
2009,07,01,13,37,22.00
2009,07,01,13,38,22.10
2009,07,01,13,39,22.00
2009,07,01,13,40,21.90
2009,07,01,13,41,21.80
2009,07,01,13,42,21.80
2009,07,01,13,43,21.80
2009,07,01,13,44,21.90
2009,07,01,13,45,22.00
2009,07,01,13,46,22.00
2009,07,01,13,47,22.00
2009,07,01,13,48,22.00
2009,07,01,13,49,22.00
2009,07,01,13,50,22.00
2009,07,01,13,51,22.10
2009,07,01,13,52,22.30
2009,07,01,13,53,22.40
2009,07,01,13,54,22.40
2009,07,01,13,55,22.40
2009,07,01,13,56,22.60
2009,07,01,13,57,22.60
2009,07,01,13,58,22.60
2009,07,01,13,59,22.50
2009,07,01,14,00,22.50
2009,07,01,14,01,22.60
2009,07,01,14,02,22.70
2009,07,01,14,03,22.90
2009,07,01,14,04,22.90
2009,07,01,14,05,23.10
2009,07,01,14,06,23.20
2009,07,01,14,07,23.20
2009,07,01,14,08,23.30
2009,07,01,14,09,23.40
2009,07,01,14,10,23.40
2009,07,01,14,11,23.30
2009,07,01,14,12,23.20
2009,07,01,14,13,23.10
2009,07,01,14,14,23.10
2009,07,01,14,15,23.10
2009,07,01,14,16,22.80
2009,07,01,14,17,22.40
2009,07,01,14,18,22.00
2009,07,01,14,19,21.50
2009,07,01,14,20,21.10
2009,07,01,14,21,20.80
2009,07,01,14,22,20.50
2009,07,01,14,23,20.20
2009,07,01,14,24,20.10
2009,07,01,14,25,20.00
2009,07,01,14,26,19.80
2009,07,01,14,27,19.60
2009,07,01,14,28,19.50
2009,07,01,14,29,19.50
2009,07,01,14,30,19.60
2009,07,01,14,31,19.60
2009,07,01,14,32,19.70
2009,07,01,14,33,19.90
2009,07,01,14,34,20.10
2009,07,01,14,35,20.20
2009,07,01,14,36,20.20
2009,07,01,14,37,20.20
2009,07,01,14,38,19.90
2009,07,01,14,39,19.80
2009,07,01,14,40,19.80
2009,07,01,14,41,19.50
2009,07,01,14,42,19.10
2009,07,01,14,43,18.90
2009,07,01,14,44,18.60
2009,07,01,14,45,18.40
2009,07,01,14,46,18.30
2009,07,01,14,47,18.20
2009,07,01,14,48,18.20
2009,07,01,14,49,18.20
2009,07,01,14,50,18.20
2009,07,01,14,51,18.40
2009,07,01,14,52,18.50
2009,07,01,14,53,18.60
2009,07,01,14,54,18.60
2009,07,01,14,55,18.60
2009,07,01,14,56,18.50
2009,07,01,14,57,18.40
2009,07,01,14,58,18.40
2009,07,01,14,59,18.40
2009,07,01,15,00,18.30
2009,07,01,15,01,18.30
2009,07,01,15,02,18.40
2009,07,01,15,03,18.50
2009,07,01,15,04,18.40
2009,07,01,15,05,18.50
2009,07,01,15,06,18.40
2009,07,01,15,07,18.30
2009,07,01,15,08,18.30
2009,07,01,15,09,18.40
2009,07,01,15,10,18.60
2009,07,01,15,11,18.70
2009,07,01,15,12,18.90
2009,07,01,15,13,18.90
2009,07,01,15,14,18.90
2009,07,01,15,15,18.90
2009,07,01,15,16,18.90
2009,07,01,15,17,19.10
2009,07,01,15,18,19.10
2009,07,01,15,19,19.20
2009,07,01,15,20,19.10
2009,07,01,15,21,18.80
2009,07,01,15,22,18.60
2009,07,01,15,23,18.50
2009,07,01,15,24,18.50
2009,07,01,15,25,18.50
2009,07,01,15,26,18.40
2009,07,01,15,27,18.40
2009,07,01,15,28,18.40
2009,07,01,15,29,18.30
2009,07,01,15,30,18.40
2009,07,01,15,31,18.50
2009,07,01,15,32,18.60
2009,07,01,15,33,18.50
2009,07,01,15,34,18.40
2009,07,01,15,35,18.30
2009,07,01,15,36,18.40
2009,07,01,15,37,18.60
2009,07,01,15,38,18.60
2009,07,01,15,39,18.80
2009,07,01,15,40,18.80
2009,07,01,15,41,18.80
2009,07,01,15,42,19.10
2009,07,01,15,43,19.30
2009,07,01,15,44,19.40
2009,07,01,15,45,19.50
2009,07,01,15,46,19.50
2009,07,01,15,47,19.50
2009,07,01,15,48,19.60
2009,07,01,15,49,19.50
2009,07,01,15,50,19.40
2009,07,01,15,51,19.30
2009,07,01,15,52,19.20
2009,07,01,15,53,19.20
2009,07,01,15,54,19.30
2009,07,01,15,55,19.40
2009,07,01,15,56,19.50
2009,07,01,15,57,19.50
2009,07,01,15,58,19.50
2009,07,01,15,59,19.50
2009,07,01,16,00,19.40
2009,07,01,16,01,19.40
2009,07,01,16,02,19.50
2009,07,01,16,03,19.60
2009,07,01,16,04,19.50
2009,07,01,16,05,19.60
2009,07,01,16,06,19.60
2009,07,01,16,07,19.60
2009,07,01,16,08,19.60
2009,07,01,16,09,19.60
2009,07,01,16,10,19.70
2009,07,01,16,11,19.90
2009,07,01,16,12,20.00
2009,07,01,16,13,20.20
2009,07,01,16,14,20.20
2009,07,01,16,15,20.10
2009,07,01,16,16,20.10
2009,07,01,16,17,19.90
2009,07,01,16,18,19.90
2009,07,01,16,19,19.90
2009,07,01,16,20,19.90
2009,07,01,16,21,19.90
2009,07,01,16,22,19.90
2009,07,01,16,23,19.90
2009,07,01,16,24,19.90
2009,07,01,16,25,19.90
2009,07,01,16,26,20.00
2009,07,01,16,27,20.00
2009,07,01,16,28,19.90
2009,07,01,16,29,20.00
2009,07,01,16,30,20.20
2009,07,01,16,31,20.30
2009,07,01,16,32,20.50
2009,07,01,16,33,20.80
2009,07,01,16,34,20.90
2009,07,01,16,35,21.00
2009,07,01,16,36,21.00
2009,07,01,16,37,21.00
2009,07,01,16,38,21.00
2009,07,01,16,39,20.90
2009,07,01,16,40,20.80
2009,07,01,16,41,20.80
2009,07,01,16,42,20.80
2009,07,01,16,43,20.90
2009,07,01,16,44,20.90
2009,07,01,16,45,20.90
2009,07,01,16,46,20.90
2009,07,01,16,47,20.80
2009,07,01,16,48,20.90
2009,07,01,16,49,20.80
2009,07,01,16,50,20.80
2009,07,01,16,51,20.70
2009,07,01,16,52,20.60
2009,07,01,16,53,20.60
2009,07,01,16,54,20.60
2009,07,01,16,55,20.60
2009,07,01,16,56,20.60
2009,07,01,16,57,20.70
2009,07,01,16,58,20.70
2009,07,01,16,59,20.80
2009,07,01,17,00,20.90
2009,07,01,17,01,20.80
2009,07,01,17,02,20.80
2009,07,01,17,03,20.70
2009,07,01,17,04,20.70
2009,07,01,17,05,20.70
2009,07,01,17,06,20.60
2009,07,01,17,07,20.70
2009,07,01,17,08,20.80
2009,07,01,17,09,20.80
2009,07,01,17,10,20.90
2009,07,01,17,11,21.00
2009,07,01,17,12,21.00
2009,07,01,17,13,21.00
2009,07,01,17,14,20.80
2009,07,01,17,15,20.70
2009,07,01,17,16,20.60
2009,07,01,17,17,20.40
2009,07,01,17,18,20.30
2009,07,01,17,19,20.20
2009,07,01,17,20,20.20
2009,07,01,17,21,20.30
2009,07,01,17,22,20.30
2009,07,01,17,23,20.40
2009,07,01,17,24,20.50
2009,07,01,17,25,20.50
2009,07,01,17,26,20.60
2009,07,01,17,27,20.60
2009,07,01,17,28,20.60
2009,07,01,17,29,20.60
2009,07,01,17,30,20.60
2009,07,01,17,31,20.60
2009,07,01,17,32,20.50
2009,07,01,17,33,20.40
2009,07,01,17,34,20.40
2009,07,01,17,35,20.50
2009,07,01,17,36,20.60
2009,07,01,17,37,20.60